When you browse on this site, cookies collect data to enhance your experience and personalize the content and advertising you see.
Visit our Privacy Policy to learn more. By continuing to use the site, you agree to this use of cookies and data.
  • In Slovakia
  • List of Countries
  • For 7 days
  • Water Temperature
  • Weather Map
  • Weather Widgets
  • user-avatar
    Login

    Hourly Weather Yeghegnadzor

    Today, 19 August, Monday

    Time Temperature Precipitation Wind Pressure Humidity
    00:00 +25°C° 0 mm 2 mps 653 mmHg 39%
    01:00 +24°C° 0 mm 2 mps 654 mmHg 39%
    02:00 +24°C° 0 mm 2 mps 654 mmHg 38%
    03:00 +23°C° 0 mm 1 mps 653 mmHg 40%
    04:00 +24°C° 0 mm 1 mps 654 mmHg 39%
    05:00 +24°C° 0 mm 1 mps 654 mmHg 38%
    06:00 +24°C° 0 mm 1 mps 655 mmHg 36%
    07:00 +27°C° 0 mm 1 mps 655 mmHg 31%
    08:00 +29°C° 0 mm 1 mps 656 mmHg 26%
    09:00 +32°C° 0 mm 1 mps 657 mmHg 20%
    10:00 +34°C° 0 mm 2 mps 657 mmHg 19%
    11:00 +36°C° 0 mm 2 mps 657 mmHg 17%
    12:00 +37°C° 0 mm 3 mps 657 mmHg 16%
    13:00 +37°C° 0 mm 3 mps 657 mmHg 16%
    14:00 +37°C° 0 mm 3 mps 657 mmHg 16%
    15:00 +38°C° 0 mm 3 mps 657 mmHg 16%
    16:00 +36°C° 0 mm 3 mps 657 mmHg 18%
    17:00 +35°C° 0 mm 3 mps 657 mmHg 21%
    18:00 +34°C° 0 mm 3 mps 657 mmHg 24%
    19:00 +30°C° 0 mm 3 mps 657 mmHg 30%
    20:00 +28°C° 0 mm 3 mps 657 mmHg 35%
    21:00 +25°C° 0 mm 3 mps 656 mmHg 40%
    22:00 +25°C° 0 mm 3 mps 656 mmHg 39%
    23:00 +24°C° 0 mm 3 mps 656 mmHg 38%

    Tomorrow, 20 August, Tuesday

    Time Temperature Precipitation Wind Pressure Humidity
    00:00 +22°C° 0 mm 3 mps 656 mmHg 37%
    01:00 +23°C° 0 mm 2 mps 656 mmHg 36%
    02:00 +21°C° 0 mm 2 mps 656 mmHg 35%
    03:00 +21°C° 0 mm 2 mps 656 mmHg 34%
    04:00 +21°C° 0 mm 2 mps 657 mmHg 33%
    05:00 +21°C° 0 mm 2 mps 657 mmHg 33%
    06:00 +23°C° 0 mm 2 mps 657 mmHg 32%
    07:00 +25°C° 0 mm 2 mps 658 mmHg 27%
    08:00 +28°C° 0 mm 1 mps 658 mmHg 22%
    09:00 +31°C° 0 mm 1 mps 659 mmHg 16%
    10:00 +32°C° 0 mm 2 mps 659 mmHg 15%
    11:00 +34°C° 0 mm 2 mps 659 mmHg 14%
    12:00 +36°C° 0 mm 2 mps 659 mmHg 13%
    13:00 +36°C° 0 mm 2 mps 659 mmHg 14%
    14:00 +36°C° 0 mm 3 mps 658 mmHg 14%
    15:00 +37°C° 0 mm 3 mps 658 mmHg 15%
    16:00 +35°C° 0 mm 3 mps 658 mmHg 17%
    17:00 +34°C° 0 mm 3 mps 657 mmHg 20%
    18:00 +32°C° 0 mm 2 mps 657 mmHg 22%
    19:00 +30°C° 0 mm 3 mps 657 mmHg 26%
    20:00 +27°C° 0 mm 3 mps 656 mmHg 30%
    21:00 +25°C° 0 mm 3 mps 656 mmHg 35%
    22:00 +24°C° 0 mm 3 mps 656 mmHg 34%
    23:00 +24°C° 0 mm 2 mps 656 mmHg 33%

    Day after tomorrow, 21 August, Wednesday

    Time Temperature Precipitation Wind Pressure Humidity
    00:00 +23°C° 0 mm 2 mps 656 mmHg 32%
    01:00 +23°C° 0 mm 2 mps 656 mmHg 32%
    02:00 +21°C° 0 mm 2 mps 656 mmHg 33%
    03:00 +21°C° 0 mm 2 mps 656 mmHg 33%
    04:00 +21°C° 0 mm 2 mps 656 mmHg 33%
    05:00 +21°C° 0 mm 2 mps 656 mmHg 34%
    06:00 +22°C° 0 mm 1 mps 656 mmHg 34%
    07:00 +25°C° 0 mm 1 mps 657 mmHg 29%
    08:00 +28°C° 0 mm 1 mps 657 mmHg 24%
    09:00 +30°C° 0 mm 1 mps 658 mmHg 20%
    10:00 +32°C° 0 mm 1 mps 658 mmHg 18%
    11:00 +34°C° 0 mm 2 mps 658 mmHg 16%
    12:00 +36°C° 0 mm 2 mps 658 mmHg 15%
    13:00 +36°C° 0 mm 2 mps 657 mmHg 14%
    14:00 +36°C° 0 mm 3 mps 657 mmHg 14%
    15:00 +37°C° 0 mm 3 mps 656 mmHg 14%
    16:00 +36°C° 0 mm 3 mps 656 mmHg 17%
    17:00 +34°C° 0 mm 3 mps 655 mmHg 19%
    18:00 +33°C° 0 mm 3 mps 655 mmHg 22%
    19:00 +30°C° 0 mm 3 mps 655 mmHg 26%
    20:00 +27°C° 0 mm 3 mps 654 mmHg 29%
    21:00 +25°C° 0 mm 3 mps 654 mmHg 32%
    22:00 +25°C° 0 mm 3 mps 654 mmHg 31%
    23:00 +24°C° 0 mm 2 mps 654 mmHg 30%

    22 August, Thursday

    Time Temperature Precipitation Wind Pressure Humidity
    00:00 +23°C° 0 mm 2 mps 654 mmHg 29%
    01:00 +23°C° 0 mm 2 mps 654 mmHg 29%
    02:00 +23°C° 0 mm 2 mps 653 mmHg 28%
    03:00 +21°C° 0 mm 2 mps 653 mmHg 28%
    04:00 +21°C° 0 mm 2 mps 653 mmHg 28%
    05:00 +21°C° 0 mm 2 mps 653 mmHg 28%
    06:00 +22°C° 0 mm 1 mps 654 mmHg 28%
    07:00 +25°C° 0 mm 1 mps 654 mmHg 24%
    08:00 +28°C° 0 mm 2 mps 655 mmHg 20%
    09:00 +31°C° 0 mm 2 mps 655 mmHg 16%
    10:00 +33°C° 0 mm 3 mps 655 mmHg 15%
    11:00 +35°C° 0 mm 3 mps 655 mmHg 13%
    12:00 +36°C° 0 mm 4 mps 655 mmHg 12%
    13:00 +37°C° 0 mm 4 mps 654 mmHg 12%
    14:00 +37°C° 0 mm 5 mps 654 mmHg 11%
    15:00 +37°C° 0 mm 5 mps 654 mmHg 11%
    16:00 +36°C° 0 mm 5 mps 653 mmHg 15%
    17:00 +34°C° 0 mm 4 mps 653 mmHg 19%
    18:00 +32°C° 0 mm 4 mps 652 mmHg 24%
    19:00 +29°C° 0 mm 4 mps 652 mmHg 28%
    20:00 +26°C° 0 mm 4 mps 652 mmHg 32%
    21:00 +23°C° 0 mm 4 mps 652 mmHg 36%
    22:00 +22°C° 0 mm 3 mps 652 mmHg 35%
    23:00 +21°C° 0 mm 2 mps 652 mmHg 35%

    23 August, Friday

    Time Temperature Precipitation Wind Pressure Humidity
    00:00 +21°C° 0 mm 2 mps 652 mmHg 34%
    01:00 +20°C° 0 mm 2 mps 652 mmHg 34%
    02:00 +20°C° 0 mm 2 mps 652 mmHg 34%
    03:00 +20°C° 0 mm 1 mps 652 mmHg 34%
    04:00 +21°C° 0 mm 1 mps 652 mmHg 33%
    05:00 +21°C° 0 mm 1 mps 652 mmHg 33%
    06:00 +21°C° 0 mm 1 mps 652 mmHg 33%
    07:00 +24°C° 0 mm 1 mps 653 mmHg 28%
    08:00 +26°C° 0 mm 1 mps 654 mmHg 23%
    09:00 +29°C° 0 mm 1 mps 654 mmHg 18%
    10:00 +30°C° 0 mm 2 mps 655 mmHg 17%
    11:00 +32°C° 0 mm 2 mps 655 mmHg 16%
    12:00 +34°C° 0 mm 3 mps 655 mmHg 14%
    13:00 +34°C° 0 mm 3 mps 655 mmHg 13%
    14:00 +35°C° 0 mm 3 mps 654 mmHg 13%
    15:00 +35°C° 0 mm 3 mps 654 mmHg 12%
    16:00 +34°C° 0 mm 3 mps 654 mmHg 17%
    17:00 +31°C° 0 mm 3 mps 653 mmHg 21%
    18:00 +30°C° 0 mm 2 mps 653 mmHg 26%
    19:00 +28°C° 0 mm 3 mps 653 mmHg 32%
    20:00 +25°C° 0 mm 3 mps 653 mmHg 39%
    21:00 +22°C° 0 mm 3 mps 653 mmHg 45%
    22:00 +21°C° 0 mm 3 mps 653 mmHg 46%
    23:00 +21°C° 0 mm 3 mps 653 mmHg 46%

    24 August, Saturday

    Time Temperature Precipitation Wind Pressure Humidity
    00:00 +20°C° 0 mm 2 mps 653 mmHg 47%
    01:00 +20°C° 0 mm 2 mps 652 mmHg 46%
    02:00 +19°C° 0 mm 2 mps 652 mmHg 45%
    03:00 +19°C° 0 mm 2 mps 652 mmHg 45%
    04:00 +20°C° 0 mm 1 mps 653 mmHg 43%
    05:00 +21°C° 0 mm 1 mps 653 mmHg 42%
    06:00 +21°C° 0 mm 1 mps 653 mmHg 40%
    07:00 +23°C° 0 mm 1 mps 654 mmHg 35%
    08:00 +26°C° 0 mm 1 mps 655 mmHg 29%
    09:00 +29°C° 0 mm 1 mps 655 mmHg 23%
    10:00 +30°C° 0 mm 1 mps 655 mmHg 21%
    11:00 +31°C° 0 mm 2 mps 655 mmHg 20%
    12:00 +34°C° 0 mm 2 mps 655 mmHg 18%
    13:00 +34°C° 0 mm 2 mps 655 mmHg 17%
    14:00 +35°C° 0 mm 2 mps 655 mmHg 16%
    15:00 +35°C° 0 mm 2 mps 655 mmHg 14%
    16:00 +34°C° 0 mm 2 mps 654 mmHg 18%
    17:00 +32°C° 0 mm 2 mps 654 mmHg 22%
    18:00 +30°C° 0 mm 2 mps 654 mmHg 25%
    19:00 +28°C° 0 mm 2 mps 654 mmHg 33%
    20:00 +26°C° 0 mm 3 mps 653 mmHg 41%
    21:00 +24°C° 0 mm 3 mps 653 mmHg 49%
    22:00 +22°C° 0 mm 3 mps 653 mmHg 50%
    23:00 +23°C° 0 mm 2 mps 654 mmHg 51%
    Show more